Torna al catalogo

STARLINK-32153

AttivoComunicazioniVLEO
NORAD 60330·PAYLOAD·🇺🇸 United States

Lanciato Aug 2, 2024 da Cape Canaveral Space Force Station

Loading…

Prossimi Passaggi (prossime 24 ore)

TLE

AggiornatoSource: CelesTrak SupGP

Epoca: Sep 14, 2026, 20:45 UTC

1 60330C 24136B   26257.86506944  .00035996  00000+0  10638-2 0  2570
2 60330  53.1576 275.7320 0001173  91.7583 339.9715 15.34363582    10

Traccia STARLINK-32153 in tempo reale con AllMySat

Download on the App Store